QPF
0.00 0.00 0.00 0.00 0.00 0.00 0.00 0.00 0.00 0.00 0.00 0.00 0.01 0.01 0.01 0.01 0.01 0.01 0.01 0.01 0.01 0.01 0.02 0.03 0.03 0.02 0.02 0.02 0.04 0.06 0.08 0.12 0.15 0.16 0.16 0.13 0.10 0.08 0.06 0.04 0.04 0.04 0.05 0.05
0.00 0.00 0.00 0.00 0.00 0.00 0.00 0.00 0.00 0.00 0.00 0.01 0.01 0.02 0.02 0.02 0.02 0.01 0.01 0.01 0.01 0.01 0.01 0.02 0.01 0.02 0.02 0.03 0.06 0.09 0.14 0.18 0.18 0.16 0.13 0.11 0.09 0.08 0.07 0.05 0.03 0.03 0.02 0.02
0.00 0.00 0.00 0.00 0.00 0.00 0.00 0.00 0.00 0.00 0.00 0.01 0.01 0.02 0.02 0.02 0.02 0.02 0.01 0.01 0.01 0.01 0.01 0.02 0.01 0.01 0.02 0.04 0.05 0.08 0.12 0.13 0.10 0.06 0.05 0.05 0.04 0.03 0.03 0.02 0.02 0.02 0.02 0.02
0.00 0.00 0.00 0.00 0.00 0.00 0.00 0.00 0.00 0.00 0.01 0.01 0.01 0.01 0.01 0.01 0.01 0.01 0.01 0.01 0.01 0.01 0.01 0.01 0.01 0.01 0.01 0.02 0.02 0.04 0.04 0.04 0.03 0.02 0.02 0.02 0.02 0.02 0.01 0.01 0.01 0.02 0.03 0.03
0.00 0.00 0.00 0.00 0.00 0.00 0.00 0.01 0.00 0.00 0.01 0.01 0.01 0.01 0.01 0.01 0.01 0.01 0.01 0.01 0.01 0.01 0.00 0.01 0.01 0.01 0.01 0.01 0.01 0.02 0.02 0.02 0.02 0.02 0.02 0.02 0.01 0.00 0.00 0.01 0.02 0.03 0.04 0.03
0.00 0.00 0.00 0.00 0.00 0.00 0.00 0.01 0.00 0.00 0.00 0.00 0.01 0.01 0.01 0.01 0.01 0.00 0.01 0.00 0.00 0.00 0.00 0.01 0.02 0.01 0.01 0.01 0.01 0.01 0.02 0.02 0.02 0.02 0.02 0.02 0.01 0.02 0.02 0.03 0.04 0.04 0.03 0.02
0.00 0.00 0.00 0.00 0.00 0.00 0.00 0.00 0.00 0.00 0.01 0.00 0.01 0.01 0.01 0.01 0.00 0.00 0.00 0.00 0.00 0.01 0.01 0.01 0.01 0.01 0.01 0.01 0.01 0.01 0.01 0.01 0.01 0.01 0.01 0.01 0.01 0.02 0.03 0.04 0.04 0.03 0.03 0.03
0.00 0.00 0.00 0.00 0.00 0.00 0.00 0.00 0.00 0.00 0.01 0.01 0.01 0.01 0.01 0.01 0.01 0.00 0.00 0.00 0.01 0.01 0.01 0.02 0.01 0.01 0.01 0.01 0.01 0.01 0.01 0.01 0.01 0.01 0.01 0.01 0.01 0.02 0.03 0.03 0.03 0.02 0.02 0.02
0.00 0.00 0.00 0.00 0.00 0.00 0.00 0.00 0.01 0.01 0.01 0.01 0.01 0.01 0.01 0.01 0.01 0.00 0.00 0.01 0.01 0.02 0.02 0.02 0.01 0.01 0.01 0.01 0.02 0.02 0.01 0.01 0.02 0.02 0.02 0.02 0.03 0.02 0.02 0.03 0.02 0.02 0.02 0.01
0.01 0.00 0.00 0.00 0.00 0.00 0.00 0.00 0.00 0.00 0.01 0.01 0.01 0.01 0.01 0.01 0.01 0.00 0.00 0.01 0.02 0.02 0.02 0.02 0.01 0.01 0.01 0.01 0.01 0.01 0.02 0.02 0.02 0.02 0.02 0.03 0.03 0.02 0.02 0.02 0.01 0.01 0.01 0.01
0.01 0.01 0.01 0.01 0.00 0.00 0.00 0.00 0.00 0.01 0.01 0.01 0.01 0.01 0.01 0.00 0.00 0.01 0.01 0.02 0.02 0.02 0.02 0.02 0.01 0.01 0.01 0.02 0.02 0.01 0.02 0.02 0.02 0.02 0.02 0.02 0.02 0.03 0.03 0.02 0.02 0.02 0.01 0.01
0.01 0.02 0.01 0.01 0.01 0.01 0.01 0.01 0.01 0.01 0.01 0.01 0.00 0.00 0.00 0.00 0.00 0.01 0.02 0.03 0.03 0.03 0.02 0.01 0.01 0.02 0.02 0.02 0.02 0.01 0.01 0.01 0.01 0.02 0.02 0.02 0.03 0.03 0.03 0.03 0.03 0.04 0.03 0.03
0.01 0.01 0.01 0.01 0.01 0.01 0.01 0.01 0.01 0.01 0.01 0.00 0.00 0.00 0.00 0.00 0.01 0.01 0.02 0.03 0.03 0.02 0.01 0.02 0.02 0.02 0.02 0.01 0.01 0.01 0.01 0.01 0.01 0.01 0.02 0.02 0.03 0.03 0.02 0.03 0.03 0.04 0.04 0.04
0.01 0.01 0.01 0.01 0.01 0.01 0.01 0.01 0.01 0.01 0.00 0.00 0.00 0.00 0.00 0.00 0.01 0.01 0.01 0.01 0.01 0.01 0.01 0.01 0.01 0.01 0.01 0.01 0.01 0.01 0.01 0.01 0.01 0.01 0.01 0.02 0.02 0.03 0.03 0.02 0.03 0.03 0.04 0.04
0.01 0.01 0.01 0.01 0.01 0.01 0.01 0.01 0.00 0.00 0.00 0.00 0.00 0.00 0.00 0.00 0.00 0.01 0.01 0.01 0.01 0.01 0.01 0.01 0.02 0.02 0.02 0.01 0.01 0.01 0.01 0.01 0.01 0.01 0.01 0.02 0.02 0.02 0.02 0.03 0.03 0.03 0.04 0.04
0.00 0.01 0.02 0.01 0.01 0.01 0.00 0.00 0.00 0.00 0.00 0.00 0.00 0.00 0.00 0.00 0.01 0.01 0.01 0.01 0.02 0.02 0.02 0.02 0.02 0.03 0.03 0.02 0.01 0.01 0.01 0.01 0.01 0.01 0.01 0.01 0.01 0.02 0.02 0.02 0.03 0.03 0.03 0.02
0.00 0.00 0.00 0.01 0.01 0.01 0.01 0.01 0.01 0.01 0.01 0.00 0.01 0.01 0.01 0.01 0.01 0.02 0.02 0.02 0.03 0.03 0.02 0.02 0.03 0.03 0.04 0.03 0.02 0.02 0.01 0.01 0.01 0.01 0.01 0.01 0.01 0.01 0.01 0.02 0.02 0.02 0.01 0.01
0.00 0.00 0.00 0.00 0.00 0.00 0.00 0.01 0.01 0.02 0.02 0.01 0.01 0.02 0.02 0.03 0.03 0.04 0.04 0.04 0.03 0.03 0.03 0.03 0.04 0.03 0.04 0.05 0.05 0.03 0.02 0.02 0.01 0.01 0.01 0.01 0.01 0.01 0.01 0.02 0.03 0.02 0.01 0.01
0.00 0.00 0.00 0.00 0.00 0.00 0.00 0.01 0.01 0.01 0.02 0.02 0.03 0.04 0.05 0.05 0.05 0.05 0.07 0.07 0.04 0.03 0.03 0.03 0.03 0.03 0.04 0.05 0.07 0.06 0.04 0.03 0.03 0.03 0.03 0.03 0.03 0.02 0.02 0.03 0.03 0.02 0.02 0.02
0.01 0.01 0.00 0.00 0.01 0.00 0.00 0.01 0.01 0.01 0.02 0.02 0.02 0.03 0.04 0.06 0.05 0.04 0.04 0.05 0.03 0.02 0.02 0.01 0.01 0.02 0.02 0.03 0.06 0.07 0.06 0.05 0.04 0.04 0.04 0.04 0.04 0.04 0.03 0.03 0.03 0.02 0.02 0.02
0.01 0.01 0.01 0.01 0.01 0.01 0.01 0.01 0.01 0.01 0.02 0.02 0.02 0.03 0.05 0.05 0.03 0.03 0.02 0.01 0.01 0.01 0.01 0.01 0.01 0.02 0.02 0.03 0.03 0.04 0.06 0.07 0.06 0.05 0.04 0.04 0.04 0.04 0.04 0.03 0.03 0.02 0.01 0.01
0.01 0.01 0.01 0.01 0.01 0.01 0.01 0.01 0.02 0.02 0.02 0.02 0.02 0.03 0.03 0.03 0.02 0.02 0.02 0.02 0.02 0.02 0.02 0.02 0.02 0.03 0.05 0.04 0.03 0.03 0.03 0.03 0.03 0.04 0.04 0.04 0.04 0.04 0.03 0.03 0.02 0.02 0.02 0.02
0.01 0.01 0.01 0.01 0.01 0.01 0.02 0.02 0.02 0.03 0.03 0.03 0.03 0.03 0.03 0.03 0.02 0.01 0.01 0.03 0.03 0.02 0.02 0.03 0.04 0.04 0.05 0.05 0.04 0.04 0.03 0.03 0.03 0.03 0.03 0.03 0.03 0.02 0.03 0.02 0.02 0.02 0.02 0.02
0.00 0.00 0.01 0.01 0.01 0.01 0.02 0.02 0.03 0.03 0.04 0.04 0.03 0.03 0.04 0.03 0.02 0.01 0.01 0.00 0.01 0.01 0.02 0.02 0.03 0.03 0.03 0.04 0.04 0.04 0.03 0.03 0.03 0.02 0.02 0.02 0.02 0.01 0.01 0.02 0.02 0.01 0.02 0.02
0.01 0.01 0.01 0.01 0.01 0.02 0.03 0.04 0.04 0.04 0.05 0.04 0.03 0.03 0.03 0.03 0.02 0.01 0.01 0.01 0.01 0.01 0.01 0.02 0.02 0.02 0.01 0.02 0.02 0.02 0.02 0.02 0.02 0.01 0.01 0.01 0.01 0.01 0.01 0.01 0.01 0.01 0.01 0.01
0.01 0.01 0.01 0.02 0.04 0.05 0.05 0.05 0.04 0.04 0.04 0.04 0.03 0.03 0.03 0.03 0.03 0.02 0.02 0.02 0.01 0.01 0.02 0.02 0.02 0.02 0.02 0.02 0.02 0.02 0.02 0.02 0.01 0.01 0.01 0.01 0.01 0.01 0.01 0.01 0.01 0.01 0.01 0.01
0.01 0.01 0.01 0.02 0.04 0.04 0.05 0.05 0.05 0.04 0.04 0.04 0.04 0.04 0.04 0.03 0.02 0.02 0.02 0.02 0.02 0.03 0.03 0.03 0.03 0.02 0.03 0.03 0.02 0.02 0.02 0.02 0.01 0.01 0.01 0.01 0.01 0.01 0.01 0.01 0.01 0.01 0.01 0.01
MSLP
1010.62 1011.19 1011.74 1012.26 1012.76 1013.21 1013.59 1013.89 1014.09 1014.18 1014.16 1014.07 1013.89 1013.66 1013.38 1013.06 1012.68 1012.24 1011.73 1011.14 1010.48 1009.77 1009.05 1008.37 1007.78 1007.32 1007.03 1006.92 1006.99 1007.19 1007.48 1007.82 1008.16 1008.45 1008.66 1008.81 1008.89 1008.91 1008.91 1008.90 1008.88 1008.85 1008.81 1008.74
1011.31 1011.92 1012.42 1012.84 1013.17 1013.42 1013.59 1013.71 1013.78 1013.81 1013.81 1013.81 1013.80 1013.77 1013.72 1013.62 1013.46 1013.19 1012.81 1012.31 1011.71 1011.03 1010.32 1009.63 1009.02 1008.53 1008.19 1008.03 1008.01 1008.11 1008.30 1008.52 1008.73 1008.91 1009.03 1009.10 1009.12 1009.12 1009.10 1009.09 1009.08 1009.06 1009.02 1008.96
1012.06 1012.65 1013.10 1013.40 1013.57 1013.65 1013.66 1013.63 1013.60 1013.59 1013.62 1013.70 1013.81 1013.95 1014.08 1014.16 1014.15 1014.02 1013.75 1013.33 1012.78 1012.15 1011.47 1010.81 1010.21 1009.72 1009.36 1009.16 1009.07 1009.09 1009.17 1009.26 1009.35 1009.41 1009.43 1009.41 1009.37 1009.33 1009.30 1009.28 1009.27 1009.26 1009.23 1009.17
1012.75 1013.28 1013.62 1013.81 1013.85 1013.80 1013.69 1013.57 1013.48 1013.46 1013.52 1013.67 1013.89 1014.15 1014.41 1014.62 1014.72 1014.70 1014.51 1014.17 1013.69 1013.12 1012.49 1011.88 1011.32 1010.86 1010.51 1010.29 1010.16 1010.10 1010.08 1010.07 1010.04 1009.98 1009.90 1009.80 1009.69 1009.61 1009.54 1009.51 1009.49 1009.48 1009.46 1009.40
1013.27 1013.68 1013.90 1013.96 1013.90 1013.75 1013.56 1013.40 1013.30 1013.30 1013.42 1013.65 1013.96 1014.32 1014.68 1014.97 1015.17 1015.21 1015.10 1014.83 1014.42 1013.92 1013.37 1012.83 1012.34 1011.92 1011.60 1011.38 1011.22 1011.11 1011.02 1010.92 1010.79 1010.63 1010.46 1010.28 1010.11 1009.98 1009.88 1009.82 1009.78 1009.76 1009.72 1009.65
1013.53 1013.77 1013.86 1013.81 1013.65 1013.45 1013.24 1013.08 1013.02 1013.08 1013.27 1013.58 1013.98 1014.42 1014.85 1015.21 1015.46 1015.57 1015.52 1015.32 1014.98 1014.56 1014.10 1013.64 1013.23 1012.88 1012.60 1012.39 1012.23 1012.09 1011.94 1011.77 1011.56 1011.33 1011.09 1010.84 1010.62 1010.44 1010.30 1010.21 1010.15 1010.10 1010.04 1009.94
1013.46 1013.54 1013.49 1013.34 1013.13 1012.92 1012.73 1012.63 1012.64 1012.78 1013.06 1013.46 1013.93 1014.44 1014.93 1015.34 1015.64 1015.80 1015.80 1015.66 1015.40 1015.06 1014.69 1014.32 1013.99 1013.71 1013.47 1013.29 1013.13 1012.97 1012.78 1012.57 1012.31 1012.03 1011.74 1011.45 1011.19 1010.97 1010.80 1010.67 1010.58 1010.49 1010.40 1010.28
1013.09 1013.01 1012.85 1012.64 1012.42 1012.24 1012.12 1012.10 1012.22 1012.47 1012.84 1013.32 1013.87 1014.43 1014.96 1015.41 1015.74 1015.93 1015.98 1015.90 1015.71 1015.45 1015.16 1014.87 1014.61 1014.39 1014.20 1014.03 1013.88 1013.71 1013.50 1013.26 1012.98 1012.68 1012.36 1012.05 1011.77 1011.53 1011.33 1011.18 1011.05 1010.93 1010.80 1010.65
1012.47 1012.28 1012.05 1011.83 1011.65 1011.53 1011.51 1011.62 1011.85 1012.21 1012.68 1013.24 1013.84 1014.44 1014.99 1015.45 1015.80 1016.02 1016.11 1016.08 1015.95 1015.76 1015.54 1015.32 1015.11 1014.93 1014.77 1014.62 1014.46 1014.29 1014.08 1013.82 1013.54 1013.23 1012.91 1012.60 1012.31 1012.07 1011.86 1011.69 1011.53 1011.39 1011.23 1011.05
1011.72 1011.47 1011.23 1011.05 1010.94 1010.93 1011.04 1011.27 1011.62 1012.09 1012.65 1013.26 1013.89 1014.51 1015.06 1015.53 1015.88 1016.12 1016.23 1016.23 1016.15 1016.01 1015.85 1015.67 1015.50 1015.35 1015.20 1015.05 1014.90 1014.71 1014.50 1014.25 1013.97 1013.67 1013.37 1013.08 1012.81 1012.57 1012.36 1012.18 1012.01 1011.84 1011.66 1011.46
1010.95 1010.69 1010.50 1010.40 1010.40 1010.52 1010.76 1011.12 1011.59 1012.15 1012.77 1013.41 1014.06 1014.67 1015.21 1015.66 1016.00 1016.23 1016.36 1016.39 1016.35 1016.25 1016.12 1015.98 1015.83 1015.68 1015.53 1015.38 1015.21 1015.02 1014.81 1014.56 1014.30 1014.03 1013.75 1013.49 1013.25 1013.03 1012.83 1012.65 1012.47 1012.29 1012.10 1011.88
1010.25 1010.04 1009.93 1009.94 1010.07 1010.33 1010.70 1011.18 1011.75 1012.37 1013.02 1013.68 1014.31 1014.89 1015.40 1015.82 1016.15 1016.38 1016.51 1016.56 1016.54 1016.48 1016.37 1016.25 1016.11 1015.96 1015.80 1015.64 1015.45 1015.26 1015.04 1014.82 1014.58 1014.34 1014.10 1013.87 1013.66 1013.47 1013.28 1013.10 1012.92 1012.73 1012.53 1012.31
1009.68 1009.54 1009.53 1009.66 1009.92 1010.30 1010.79 1011.37 1012.00 1012.66 1013.33 1013.97 1014.58 1015.12 1015.59 1015.98 1016.29 1016.51 1016.65 1016.72 1016.73 1016.69 1016.60 1016.49 1016.36 1016.21 1016.04 1015.86 1015.67 1015.47 1015.27 1015.06 1014.85 1014.64 1014.44 1014.25 1014.07 1013.90 1013.73 1013.56 1013.38 1013.18 1012.97 1012.74
1009.22 1009.17 1009.25 1009.49 1009.86 1010.35 1010.93 1011.57 1012.25 1012.93 1013.59 1014.21 1014.78 1015.29 1015.73 1016.09 1016.39 1016.61 1016.76 1016.85 1016.89 1016.87 1016.81 1016.71 1016.58 1016.43 1016.26 1016.08 1015.89 1015.69 1015.50 1015.31 1015.13 1014.97 1014.81 1014.66 1014.51 1014.36 1014.20 1014.03 1013.85 1013.65 1013.42 1013.19
1008.85 1008.86 1009.02 1009.33 1009.79 1010.35 1010.99 1011.68 1012.38 1013.06 1013.71 1014.32 1014.86 1015.34 1015.75 1016.11 1016.40 1016.63 1016.81 1016.93 1016.99 1017.00 1016.97 1016.89 1016.77 1016.62 1016.45 1016.28 1016.09 1015.91 1015.74 1015.58 1015.44 1015.31 1015.19 1015.08 1014.96 1014.83 1014.69 1014.52 1014.34 1014.12 1013.89 1013.65
1008.51 1008.54 1008.75 1009.11 1009.61 1010.22 1010.90 1011.61 1012.32 1013.00 1013.65 1014.24 1014.77 1015.24 1015.65 1016.01 1016.32 1016.57 1016.78 1016.93 1017.03 1017.07 1017.06 1017.00 1016.90 1016.77 1016.61 1016.44 1016.27 1016.11 1015.97 1015.85 1015.75 1015.66 1015.58 1015.50 1015.42 1015.31 1015.18 1015.02 1014.83 1014.61 1014.38 1014.13
1008.13 1008.17 1008.39 1008.77 1009.29 1009.91 1010.60 1011.32 1012.04 1012.73 1013.38 1013.98 1014.52 1015.00 1015.44 1015.82 1016.16 1016.45 1016.69 1016.88 1017.01 1017.08 1017.10 1017.06 1016.97 1016.85 1016.70 1016.55 1016.40 1016.27 1016.16 1016.07 1016.01 1015.97 1015.93 1015.89 1015.84 1015.76 1015.65 1015.50 1015.32 1015.11 1014.87 1014.62
1007.70 1007.73 1007.93 1008.31 1008.82 1009.44 1010.13 1010.86 1011.59 1012.30 1012.97 1013.59 1014.16 1014.69 1015.16 1015.59 1015.97 1016.30 1016.58 1016.80 1016.96 1017.05 1017.08 1017.05 1016.98 1016.87 1016.73 1016.60 1016.47 1016.36 1016.29 1016.24 1016.22 1016.21 1016.22 1016.22 1016.20 1016.16 1016.07 1015.95 1015.79 1015.59 1015.37 1015.13
1007.24 1007.23 1007.41 1007.76 1008.26 1008.87 1009.56 1010.29 1011.04 1011.78 1012.48 1013.15 1013.77 1014.35 1014.88 1015.36 1015.79 1016.16 1016.47 1016.72 1016.90 1017.00 1017.04 1017.02 1016.95 1016.84 1016.72 1016.59 1016.48 1016.40 1016.35 1016.33 1016.34 1016.38 1016.43 1016.47 1016.49 1016.48 1016.44 1016.35 1016.23 1016.06 1015.87 1015.66
1006.79 1006.75 1006.89 1007.21 1007.69 1008.28 1008.97 1009.71 1010.49 1011.26 1012.01 1012.74 1013.42 1014.05 1014.64 1015.17 1015.65 1016.06 1016.40 1016.66 1016.85 1016.96 1017.00 1016.98 1016.91 1016.81 1016.69 1016.57 1016.47 1016.40 1016.37 1016.38 1016.43 1016.49 1016.57 1016.65 1016.72 1016.75 1016.76 1016.72 1016.65 1016.53 1016.38 1016.21
1006.43 1006.36 1006.47 1006.75 1007.20 1007.78 1008.46 1009.21 1010.00 1010.81 1011.61 1012.39 1013.13 1013.83 1014.47 1015.05 1015.56 1016.01 1016.37 1016.65 1016.84 1016.95 1016.99 1016.97 1016.90 1016.80 1016.68 1016.57 1016.49 1016.43 1016.42 1016.44 1016.50 1016.59 1016.70 1016.81 1016.92 1017.00 1017.05 1017.07 1017.05 1017.00 1016.90 1016.78
1006.22 1006.12 1006.19 1006.44 1006.86 1007.42 1008.09 1008.84 1009.65 1010.48 1011.32 1012.14 1012.93 1013.67 1014.36 1014.98 1015.52 1015.99 1016.37 1016.66 1016.86 1016.98 1017.02 1017.01 1016.94 1016.85 1016.75 1016.65 1016.57 1016.53 1016.53 1016.56 1016.64 1016.74 1016.86 1017.00 1017.13 1017.25 1017.35 1017.43 1017.46 1017.47 1017.43 1017.36
1006.21 1006.07 1006.11 1006.32 1006.70 1007.22 1007.87 1008.61 1009.42 1010.26 1011.12 1011.97 1012.79 1013.56 1014.27 1014.92 1015.49 1015.97 1016.37 1016.67 1016.89 1017.02 1017.09 1017.09 1017.05 1016.98 1016.90 1016.82 1016.77 1016.74 1016.74 1016.79 1016.86 1016.97 1017.10 1017.25 1017.40 1017.55 1017.68 1017.80 1017.89 1017.95 1017.97 1017.95
1006.36 1006.20 1006.20 1006.37 1006.71 1007.20 1007.81 1008.52 1009.31 1010.15 1011.00 1011.85 1012.68 1013.46 1014.19 1014.85 1015.43 1015.93 1016.35 1016.67 1016.91 1017.08 1017.17 1017.22 1017.22 1017.19 1017.14 1017.10 1017.07 1017.06 1017.08 1017.13 1017.21 1017.31 1017.44 1017.59 1017.74 1017.90 1018.06 1018.20 1018.33 1018.43 1018.49 1018.50
1006.65 1006.46 1006.42 1006.56 1006.85 1007.29 1007.86 1008.54 1009.29 1010.10 1010.93 1011.77 1012.58 1013.36 1014.09 1014.75 1015.34 1015.86 1016.29 1016.64 1016.92 1017.13 1017.27 1017.36 1017.42 1017.44 1017.46 1017.46 1017.47 1017.49 1017.52 1017.58 1017.66 1017.75 1017.87 1018.01 1018.15 1018.31 1018.47 1018.62 1018.76 1018.88 1018.97 1019.01
1006.97 1006.77 1006.71 1006.81 1007.06 1007.46 1007.99 1008.62 1009.33 1010.10 1010.90 1011.70 1012.50 1013.26 1013.98 1014.64 1015.23 1015.75 1016.21 1016.59 1016.90 1017.16 1017.36 1017.51 1017.63 1017.72 1017.80 1017.86 1017.91 1017.96 1018.02 1018.09 1018.17 1018.26 1018.36 1018.48 1018.61 1018.75 1018.89 1019.04 1019.17 1019.29 1019.38 1019.42
1007.24 1007.03 1006.96 1007.04 1007.27 1007.64 1008.12 1008.72 1009.39 1010.12 1010.88 1011.66 1012.43 1013.17 1013.87 1014.51 1015.11 1015.64 1016.11 1016.52 1016.87 1017.17 1017.43 1017.64 1017.83 1017.98 1018.12 1018.23 1018.33 1018.43 1018.51 1018.60 1018.68 1018.77 1018.86 1018.96 1019.06 1019.18 1019.30 1019.42 1019.54 1019.64 1019.71 1019.73
Thickness
5761 5768 5768 5768 5767 5762 5757 5750 5742 5748 5751 5763 5770 5771 5771 5770 5768 5765 5762 5760 5757 5754 5750 5747 5745 5743 5739 5735 5732 5729 5724 5719 5716 5713 5709 5707 5704 5702 5700 5698 5697 5695 5693 5690
5756 5763 5763 5762 5766 5765 5762 5758 5754 5754 5756 5771 5772 5770 5768 5766 5763 5760 5758 5757 5755 5751 5747 5744 5742 5739 5736 5732 5729 5725 5720 5716 5713 5709 5706 5702 5699 5697 5694 5693 5691 5689 5686 5684
5736 5748 5754 5744 5758 5760 5760 5761 5757 5751 5760 5768 5765 5764 5764 5763 5760 5758 5757 5755 5751 5748 5745 5742 5739 5735 5731 5728 5724 5719 5715 5711 5708 5704 5701 5698 5695 5692 5689 5687 5684 5682 5680 5678
5724 5734 5724 5745 5767 5767 5761 5760 5762 5763 5764 5766 5765 5765 5764 5763 5759 5756 5755 5752 5749 5746 5743 5739 5735 5731 5727 5723 5718 5715 5711 5707 5704 5700 5697 5694 5690 5687 5684 5681 5678 5676 5673 5670
5711 5714 5725 5746 5762 5762 5754 5752 5761 5759 5761 5761 5761 5759 5757 5761 5759 5756 5754 5751 5748 5744 5740 5735 5730 5726 5722 5717 5714 5710 5707 5703 5699 5696 5692 5688 5685 5682 5679 5676 5673 5670 5668 5665
5708 5712 5711 5739 5761 5767 5757 5742 5760 5759 5757 5754 5753 5740 5745 5758 5756 5753 5751 5747 5743 5739 5734 5729 5725 5721 5716 5711 5708 5705 5702 5698 5695 5691 5687 5684 5680 5677 5674 5671 5668 5665 5663 5660
5705 5708 5718 5746 5758 5759 5733 5739 5759 5758 5755 5751 5747 5747 5751 5754 5751 5748 5745 5742 5738 5733 5728 5724 5720 5715 5710 5706 5703 5701 5698 5694 5690 5687 5683 5679 5675 5672 5669 5665 5662 5659 5656 5654
5698 5702 5713 5748 5749 5742 5743 5754 5756 5754 5752 5749 5747 5748 5748 5747 5745 5742 5738 5736 5732 5726 5721 5717 5714 5710 5705 5701 5699 5696 5692 5688 5684 5681 5678 5675 5670 5666 5662 5660 5656 5652 5650 5647
5707 5713 5729 5739 5744 5749 5749 5749 5751 5750 5749 5747 5744 5742 5741 5739 5737 5735 5732 5729 5725 5720 5715 5711 5708 5704 5699 5697 5694 5689 5685 5682 5679 5675 5671 5667 5663 5659 5656 5653 5649 5646 5643 5641
5706 5717 5727 5733 5738 5744 5746 5746 5748 5748 5746 5743 5739 5737 5733 5731 5729 5727 5725 5721 5718 5714 5709 5704 5701 5699 5696 5692 5687 5683 5679 5675 5672 5668 5665 5661 5657 5653 5650 5647 5643 5640 5638 5635
5699 5711 5719 5727 5731 5734 5737 5740 5741 5740 5739 5737 5734 5730 5727 5724 5722 5721 5718 5715 5711 5707 5703 5699 5696 5693 5690 5686 5681 5677 5673 5668 5665 5661 5658 5654 5650 5647 5645 5642 5639 5636 5634 5630
5695 5706 5706 5714 5724 5728 5728 5729 5731 5730 5729 5729 5728 5724 5722 5719 5717 5714 5711 5707 5703 5699 5695 5692 5689 5686 5684 5680 5676 5671 5666 5663 5659 5655 5651 5647 5644 5641 5639 5636 5634 5631 5628 5625
5701 5706 5707 5713 5718 5721 5721 5722 5723 5723 5722 5720 5720 5719 5715 5711 5709 5706 5703 5700 5696 5693 5690 5686 5682 5679 5677 5674 5670 5666 5661 5658 5654 5650 5646 5642 5639 5635 5632 5630 5628 5625 5622 5619
5697 5699 5700 5705 5708 5712 5714 5715 5715 5715 5714 5713 5711 5710 5707 5704 5701 5698 5695 5693 5691 5687 5683 5679 5676 5673 5671 5668 5664 5660 5657 5653 5649 5645 5641 5637 5634 5630 5627 5624 5621 5619 5616 5613
5691 5694 5695 5699 5702 5703 5705 5705 5703 5703 5703 5703 5702 5701 5699 5696 5693 5690 5688 5686 5683 5679 5676 5673 5670 5667 5665 5662 5658 5655 5651 5648 5644 5640 5636 5632 5628 5625 5622 5619 5616 5613 5610 5607
5684 5687 5689 5690 5691 5693 5694 5695 5693 5693 5693 5693 5691 5691 5690 5688 5686 5683 5681 5679 5675 5672 5669 5666 5663 5662 5659 5656 5652 5648 5645 5643 5639 5635 5631 5627 5623 5620 5616 5613 5610 5607 5605 5602
5674 5674 5677 5678 5681 5683 5684 5686 5686 5685 5684 5683 5682 5682 5680 5678 5676 5674 5673 5672 5669 5667 5664 5661 5658 5656 5653 5649 5646 5642 5638 5636 5633 5628 5624 5621 5618 5614 5611 5608 5605 5602 5600 5597
5672 5673 5674 5675 5674 5674 5676 5678 5678 5678 5676 5677 5676 5673 5671 5670 5668 5667 5665 5663 5661 5659 5658 5656 5654 5651 5647 5644 5640 5635 5632 5629 5625 5621 5618 5615 5612 5609 5605 5603 5600 5598 5595 5592
5664 5666 5667 5668 5668 5668 5668 5669 5670 5670 5670 5669 5668 5666 5665 5663 5662 5661 5659 5657 5654 5652 5651 5650 5647 5644 5641 5638 5635 5629 5625 5622 5619 5615 5612 5608 5605 5603 5600 5597 5594 5592 5589 5587
5657 5658 5659 5659 5660 5660 5660 5661 5662 5661 5661 5661 5660 5659 5657 5655 5654 5652 5651 5649 5648 5648 5647 5644 5641 5638 5635 5631 5628 5624 5620 5617 5614 5610 5606 5602 5600 5597 5595 5592 5589 5586 5584 5581
5647 5648 5649 5650 5650 5652 5653 5653 5653 5653 5653 5653 5652 5651 5650 5648 5647 5645 5642 5641 5643 5642 5640 5637 5634 5631 5628 5625 5622 5618 5615 5611 5607 5604 5601 5598 5595 5592 5590 5587 5584 5581 5578 5576
5638 5639 5640 5641 5641 5642 5644 5645 5645 5645 5645 5644 5644 5643 5642 5640 5639 5637 5637 5636 5636 5635 5632 5630 5627 5625 5622 5619 5616 5612 5609 5605 5602 5599 5596 5593 5590 5587 5585 5583 5580 5577 5574 5571
5629 5630 5632 5633 5633 5634 5635 5637 5637 5638 5637 5637 5636 5636 5635 5634 5633 5631 5630 5631 5630 5628 5625 5623 5621 5618 5615 5612 5609 5605 5602 5599 5596 5594 5591 5587 5585 5583 5581 5579 5575 5572 5569 5566
5622 5623 5624 5625 5626 5626 5627 5628 5629 5629 5630 5630 5630 5630 5629 5627 5626 5626 5626 5624 5623 5621 5619 5617 5614 5611 5609 5606 5602 5599 5596 5593 5590 5588 5585 5582 5580 5578 5576 5573 5570 5568 5565 5562
5615 5616 5617 5617 5617 5618 5619 5620 5620 5621 5621 5622 5623 5623 5623 5622 5620 5619 5618 5617 5615 5613 5612 5610 5607 5604 5601 5598 5595 5592 5590 5587 5585 5583 5580 5578 5575 5573 5571 5569 5566 5563 5560 5558
5608 5608 5609 5610 5610 5610 5611 5611 5612 5612 5613 5614 5614 5614 5614 5614 5613 5612 5610 5609 5607 5605 5604 5601 5599 5596 5594 5591 5589 5586 5584 5582 5579 5577 5574 5572 5570 5568 5566 5564 5562 5559 5556 5554
5601 5602 5602 5603 5603 5603 5604 5604 5604 5605 5606 5606 5605 5605 5606 5606 5605 5603 5602 5601 5599 5597 5595 5593 5591 5588 5586 5584 5582 5580 5577 5575 5573 5571 5569 5566 5564 5562 5560 5558 5556 5554 5552 5549